STARLINK-1225, 45187

Orbit data source: Space-Track

STARLINK-1225, 45187 is a payload satellite owned by SpaceX/Seattle (US) in LEO that was launched on Mon, 17 Feb 2020 UTC via an FALCON 9 launch vehicle from the Air Force Eastern Test Range (AFETR). Payload-class satellites include a variety of spacecraft equipped with specific instruments for various scientific and technological missions. These include communications satellites like Starlink; space stations such as the ISS; scientific satellites like the Hubble; Earth observation satellites from companies like Planet Labs, Umbra, and HawkEye 360; GPS; miniature CubeSats for education and research; and military/defense satellites.

Loading next visibility...
Identifier
45187, 2020-012K
Orbit
LEO
Country
Flag of USUS
Related business
Manufacturer
SpaceX/Seattle
Mission
Partially operational Commercial Communications
Bus & Motor
STARLINK, Unknown motor
Mass
260 kg wet, ~248 kg dry
Launch date (UTC)
2020-02-17 (6 years ago)
Launch vehicle
FALCON 9
Launch site
Air Force Eastern Test Range (AFETR)
Object type
Payload
Rocket body
Debris
Shape & HBR
Box + 1 Pan, 10.1 m
Radar Cross Section
13.562 m², Large (>1 m²)

Expand to show TLE details & history
Last TLE update: 2 days ago

TLE from 2 days ago
0 STARLINK-1225
1 45187U 20012K   26171.34495683  .00045123  00000-0  12635-2 0  9993
2 45187  53.1563 281.3533 0002781 305.5680  54.5064 15.36209372350673
Epoch: 2026-06-20T08:16Z
TLE epoch observation values (Epoch: 2026-06-20T08:16:44.270Z)
Latitude
0.00001°
Longitude
-111.39207°
Altitude
457.129 km
Speed
7.64 km/s
True Right ascension
18h 45m 24s
True Declination
0° 00' 00"
Sunlit
Object was in full shadow at epoch
Visualization orbit readout
Latitude
Unknown
Longitude
Unknown
Altitude
Unknown
Speed
Unknown
Apparent Right ascension
Unknown
Apparent Declination
Unknown
Sunlit
N/A
Visualization observer readout
Local Sidereal Time
23:27:15
Azimuth
Unknown
Elevation
Unknown
Doppler factor
Unknown
Orbital elements
Apogee altitude
459.489 km
Perigee altitude
455.687 km
Semi-major axis
6,835.725 km
Eccentricity
0.00028
Inclination
53.1563°
RAAN
281.3533°
Arg. of periapsis
305.568°
True anomaly
54.53235°
Mean anomaly
54.5064°
Eccentric anomaly
54.51938°
Mean motion
3.84031 °/min
Orbital period
93.74 mins
BSTAR
0.0012635
Loading maneuver chart data...
Computing Atmospheric mass density...

Documentation

Showing up to 5 results
|